{"data":{"norad_id":54810,"epoch":"2026-05-24T22:30:53.987904Z","epoch_age_seconds":83465,"freshness":"FRESH","line1":"1 54810U 22175BE  26144.93812486  .00003866  00000+0  26097-3 0  9992","line2":"2 54810  53.2135  41.5979 0001707  91.7791 268.3397 15.08822412191713","mean_motion":15.08822412,"eccentricity":0.0001707,"inclination_deg":53.2135,"raan_deg":41.5979,"arg_perigee_deg":91.7791,"mean_anomaly_deg":268.3397,"bstar":0.00026097,"rev_number":19171,"period_min":95.438667171654,"perigee_km":538.61625760691,"apogee_km":540.97804032536,"semimajor_km":6917.9341489661,"source":"CELESTRAK","updated_at":"2026-05-25T13:38:17.716747Z"}}